FW9340 Weather Reports


Display with metric or nautical units.
time (UTC)temp
F
wind
direction
speed
MPH
gust
MPH
rain 1hr
in
rain 24hr
in
rain mn
in
humidity
%
barometer
mb
20260507114545 52 297 1.0 4.0 0.00 0.00 0.00 92 1012.4
20260507113040 52 0 0.0 1.0 0.00 0.00 0.00 93 1012.4
20260507111540 52 0 0.0 0.0 0.00 0.00 0.00 94 1012.4
20260507110039 52 0 0.0 0.0 0.00 0.00 0.00 94 1012.3
20260507104536 52 0 0.0 0.0 0.00 0.00 0.00 95 1012.3
20260507103043 52 0 0.0 0.0 0.00 0.00 0.00 94 1012.1
20260507101550 52 0 0.0 0.0 0.00 0.00 0.00 94 1012.1
20260507100050 52 0 0.0 0.0 0.00 0.00 0.00 93 1011.9
20260507094540 52 0 0.0 1.0 0.00 0.00 0.00 93 1012.0
20260507093040 52 0 0.0 1.0 0.00 0.00 0.00 93 1011.6
20260507091544 52 0 0.0 0.0 0.00 0.00 0.00 94 1011.9
20260507090047 52 0 0.0 0.0 0.00 0.00 0.00 93 1011.9
20260507084546 52 0 0.0 0.0 0.00 0.00 0.00 93 1011.6
20260507083054 53 0 0.0 0.0 0.00 0.00 0.00 92 1011.7
20260507081543 53 0 0.0 1.0 0.00 0.00 0.00 91 1011.3
20260507080043 53 0 0.0 1.0 0.00 0.00 0.00 91 1011.2
20260507074541 53 0 0.0 5.0 0.00 0.00 0.00 89 1011.1
20260507073052 53 254 3.0 8.0 0.00 0.00 0.00 90 1010.8
20260507071539 54 0 2.0 12.0 0.00 0.00 0.00 92 1010.7
20260507070042 54 300 1.0 6.0 0.00 0.00 0.00 94 1010.8
20260507064539 54 0 0.0 4.0 0.00 0.00 0.00 94 1010.9
20260507063047 55 0 0.0 6.0 0.00 0.00 0.00 94 1010.9
20260507061540 55 0 0.0 4.0 0.00 0.00 0.00 94 1010.4
20260507060040 55 311 1.0 4.0 0.00 0.00 0.00 93 1011.1
20260507054542 55 290 0.0 5.0 0.00 0.00 0.00 93 1011.0
20260507053045 55 291 2.0 6.0 0.00 0.00 0.00 93 1010.9
20260507051543 56 0 0.0 6.0 0.00 0.00 0.00 91 1010.8
20260507050040 58 286 3.0 8.0 0.00 0.00 0.00 88 1011.4
20260507044541 59 21 3.0 10.0 0.00 0.00 0.00 84 1010.8
20260507043042 60 311 2.0 12.0 0.00 0.00 0.00 81 1011.0
20260507041545 61 290 2.0 6.0 0.00 0.00 0.00 79 1010.9
20260507040043 62 0 1.0 6.0 0.00 0.00 0.00 79 1010.5
20260507034541 62 287 1.0 6.0 0.00 0.00 0.00 78 1010.5
20260507033039 62 221 0.0 4.0 0.00 0.00 0.00 79 1010.5
20260507031539 62 5 1.0 7.0 0.00 0.00 0.00 81 1010.3
20260507030047 63 0 0.0 9.0 0.00 0.00 0.00 84 1010.0
20260507024554 64 0 0.0 4.0 0.00 0.00 0.00 86 1010.0
20260507023042 64 318 3.0 11.0 0.00 0.00 0.00 85 1009.6
20260507021539 65 295 6.0 10.0 0.00 0.00 0.00 84 1009.6
20260507020055 65 280 3.0 9.0 0.00 0.00 0.00 83 1009.4
20260507014553 66 286 4.0 9.0 0.00 0.00 0.00 82 1009.4
20260507013045 66 0 2.0 6.0 0.00 0.00 0.00 84 1009.8
20260507011540 66 340 0.0 4.0 0.00 0.00 0.00 86 1009.7
20260507010039 67 0 0.0 0.0 0.00 0.00 0.00 85 1009.7
20260507004543 67 0 0.0 4.0 0.00 0.00 0.00 84 1009.5
20260507003039 67 0 0.0 1.0 0.00 0.00 0.00 84 1009.3
20260507001539 67 0 0.0 5.0 0.00 0.00 0.00 83 1009.1
20260507000039 67 0 0.0 1.0 0.00 0.00 0.00 84 1009.2
20260506234538 67 0 0.0 1.0 0.00 0.00 0.00 84 1009.0
20260506233040 67 0 0.0 1.0 0.00 0.00 0.00 84 1009.0
20260506231549 68 0 0.0 0.0 0.00 0.00 0.00 83 1008.7
20260506230052 68 0 0.0 3.0 0.00 0.00 0.00 83 1008.5
20260506224544 68 0 0.0 1.0 0.00 0.00 0.00 82 1008.7
20260506223050 68 0 0.0 3.0 0.00 0.00 0.00 82 1008.5
20260506221537 68 0 1.0 8.0 0.00 0.00 0.00 80 1008.5
20260506220044 68 0 0.0 9.0 0.00 0.00 0.00 80 1008.6
20260506214540 69 182 0.0 9.0 0.00 0.00 0.00 80 1008.4
20260506213059 69 243 3.0 11.0 0.00 0.00 0.00 79 1008.5
20260506211602 69 160 2.0 8.0 0.00 0.00 0.00 79 1008.4
20260506210043 69 0 2.0 6.0 0.00 0.00 0.00 80 1008.1
20260506204548 69 234 0.0 5.0 0.00 0.00 0.00 80 1008.0
20260506203046 68 0 1.0 9.0 0.00 0.00 0.00 81 1008.1
20260506201554 68 202 2.0 9.0 0.00 0.00 0.00 80 1008.0
20260506200045 68 216 0.0 7.0 0.00 0.00 0.00 80 1008.0
20260506194551 69 211 1.0 12.0 0.00 0.00 0.00 80 1008.1
20260506193040 69 191 0.0 12.0 0.00 0.00 0.00 80 1008.3
20260506191545 68 150 6.0 13.0 0.00 0.00 0.00 78 1008.3
20260506190038 68 113 3.0 8.0 0.00 0.00 0.00 81 1008.5
20260506184546 66 0 4.0 14.0 0.00 0.00 0.00 83 1008.5
20260506183057 66 148 5.0 15.0 0.00 0.00 0.00 83 1008.7
20260506181539 65 222 2.0 11.0 0.00 0.00 0.00 85 1008.7
20260506180050 64 0 3.0 11.0 0.00 0.00 0.00 87 1008.9
20260506174542 64 203 3.0 12.0 0.00 0.00 0.00 88 1009.0
20260506173050 63 0 3.0 13.0 0.00 0.00 0.00 89 1009.0
20260506171541 63 218 4.0 13.0 0.00 0.00 0.00 90 1009.2
20260506170100 63 148 7.0 15.0 0.00 0.00 0.00 90 1009.1
20260506164540 62 223 7.0 14.0 0.00 0.00 0.00 92 1009.2
20260506163048 62 239 2.0 12.0 0.00 0.00 0.00 93 1009.5
20260506161541 61 189 2.0 12.0 0.00 0.00 0.00 94 1009.4
20260506160043 61 251 5.0 15.0 0.00 0.00 0.00 94 1009.4
20260506154543 60 248 2.0 9.0 0.00 0.00 0.00 95 1009.6
20260506153040 60 214 2.0 11.0 0.00 0.00 0.00 94 1009.7
20260506151539 60 229 2.0 11.0 0.00 0.00 0.00 94 1009.7
20260506150039 60 214 1.0 10.0 0.00 0.00 0.00 94 1009.9
20260506144555 60 224 2.0 9.0 0.00 0.00 0.00 94 1010.4
20260506143040 60 0 2.0 9.0 0.00 0.00 0.00 94 1010.3
20260506141541 60 0 2.0 9.0 0.00 0.00 0.00 93 1010.2
20260506140043 60 0 1.0 5.0 0.00 0.00 0.00 92 1010.2
20260506134539 61 0 0.0 4.0 0.00 0.00 0.00 91 1010.6
20260506133043 61 224 1.0 7.0 0.00 0.00 0.00 90 1010.9
20260506131540 61 155 1.0 7.0 0.00 0.00 0.00 89 1010.7
20260506130039 62 0 0.0 7.0 0.00 0.00 0.00 87 1010.1
20260506124539 62 206 1.0 6.0 0.00 0.00 0.00 86 1009.9
20260506123039 63 161 1.0 10.0 0.00 0.00 0.00 83 1010.1
20260506121548 63 0 3.0 12.0 0.00 0.00 0.00 81 1010.4
20260506120044 64 241 4.0 13.0 0.00 0.00 0.00 79 1010.5